This demonstration page uses our WeatherBlox Daily Observations layout. Learn more.

39.92423, -83.80882

Hourly Observations for April 23, 2015

Temp ( °F °C ) Dew Point ( °F °C ) Humidity (%) Winds ( mph kmh ) Pressure ( in mb ) Visibility ( mi km ) Precip ( " mm )
12:56 am 00:56 Clear 37 2.7 29 -1.6 74 74 W 6 9 29.93 1014 8 12.87472 0 0
1:56 am 01:56 Clear 36 2.2 29 -1.6 76 76 SW 5 7 29.93 1014 8 12.87472 0 0
2:56 am 02:56 Clear 32 0 29 -1.6 89 89 SW 5 7 29.93 1013 7 11.26538 0 0
3:56 am 03:56 Clear 34 1.1 29 -1.6 82 82 Calm 29.93 1014 8 12.87472 0 0
4:56 am 04:56 Clear 32 0 28 -2.2 85 85 SSW 6 9 29.94 1014 7 11.26538 0 0
5:56 am 05:56 Clear 32 0 28 -2.2 85 85 SW 8 13 29.94 1014 7 11.26538 0 0
6:56 am 06:56 Hazy 33 0.5 28 -2.2 82 82 SW 8 13 29.96 1015 6 9.65604 0 0
7:56 am 07:56 Hazy 35 1.6 30 -1.1 82 82 WSW 6 9 29.98 1015 6 9.65604 0 0
8:56 am 08:56 Hazy 41 5 30 -1.1 65 65 WNW 9 15 29.98 1015 6 9.65604 0 0
9:56 am 09:56 Hazy 44 6.6 30 -1.1 58 58 WNW 10 17 29.98 1015 6 9.65604 0 0
10:56 am 10:56 Sunny 46 7.7 28 -2.2 50 50 NW 17 28 30 1016 7 11.26538 0 0
11:56 am 11:56 Hazy 48 8.8 27 -2.7 45 45 WNW 17 28 30.01 1016 6 9.65604 0 0
12:56 pm 12:56 Hazy 49 9.4 27 -2.7 43 43 WNW 17 28 30.01 1016 6 9.65604 0 0
1:56 pm 13:56 Mostly Cloudy 51 10.5 29 -1.6 43 43 WNW 17 28 30.01 1016 7 11.26538 0 0
2:56 pm 14:56 Mostly Cloudy 50 10 28 -2.2 43 43 WNW 18 30 30.01 1016 7 11.26538 0 0
3:56 pm 15:56 Mostly Cloudy 50 10 27 -2.7 41 41 W 16 26 30 1016 7 11.26538 0 0
4:56 pm 16:56 Mostly Cloudy with Haze 51 10.5 28 -2.2 41 41 WNW 21 33 30 1016 6 9.65604 0 0
5:56 pm 17:56 Mostly Cloudy with Haze 50 10 27 -2.7 41 41 WNW 17 28 30.02 1017 6 9.65604 0 0
6:56 pm 18:56 Mostly Cloudy with Haze 49 9.4 27 -2.7 43 43 NW 17 28 30.03 1017 6 9.65604 0 0
7:56 pm 19:56 Hazy 47 8.3 26 -3.3 44 44 NW 14 22 30.04 1017 6 9.65604 0 0
8:56 pm 20:56 Clear 44 6.6 27 -2.7 52 52 NW 8 13 30.05 1018 7 11.26538 0 0
9:56 pm 21:56 Clear 39 3.8 27 -2.7 63 63 NNW 7 11 30.07 1018 8 12.87472 0 0
10:56 pm 22:56 Clear 38 3.3 25 -3.8 60 60 NNW 6 9 30.08 1019 8 12.87472 0 0
11:56 pm 23:56 Clear 38 3.3 23 -5 55 55 NNW 5 7 30.1 1019 8 12.87472 0 0

Powered by AerisWeather